Voltar ao catálogo

COSMOS 1860 COOLANT

LostLEO
NORAD 50795·DEBRIS·🇷🇺 Russia

Lançado Jun 18, 1987 de Baikonur Cosmodrome

Loading…

Próximas Passagens (próximas 24 horas)

TLE

ObsoletoSource: Space-Track

Época: Sep 15, 2022, 09:16 UTC

1 50795U 87052E   22258.38627738  .00000494  00000-0  19937-3 0  9990
2 50795  65.0089 125.8285 0012947 258.4849 277.5499 14.37206657975320

Acompanhe COSMOS 1860 COOLANT em tempo real com AllMySat

Download on the App Store